Location: Branche des Alpilles
(43.6087°N, 4.6976°E)
Time: 11:54:24
(UTC+00:00)

FengYun 1-2 T - Pass Details

Date: 30 November 2020
Orbit: 847 x 880 km, 98.7° (Epoch: 25 January)

Event Time Altitude Azimuth Distance (km) Brightness Sun altitude
Rises 16:55:36 0° 151° (SSE) 3,425 7.3 -8.9°
Reaches altitude 10° 16:58:01 10° 147° (SSE) 2,487 6.5 -9.3°
Maximum altitude 17:03:23 55° 71° (ENE) 1,019 4.3 -10.2°
Drops below altitude 10° 17:08:45 10° 355° (N) 2,486 6.5 -11.2°
Sets 17:11:09 0° 351° (N) 3,423 7.3 -11.6°
